This is the latest recevied weather packets stored in our database for station/object VR2OT-10. If no packets are shown the sender has not sent any weather packets the latest 10 day(s).
| Time | Temp. | Humidity | Pressure | Rain* | Wind** | Luminosity | Snow |
|---|---|---|---|---|---|---|---|
| 1787954132 | 28.33° C | 87% | 1000 hPa | - | 0.89 m/s, 270° | - | - |
| 1787953233 | 28.33° C | 87% | 999.8 hPa | - | 1.34 m/s, 270° | - | - |
| 1787952332 | 28.89° C | 88% | 999.7 hPa | - | 2.24 m/s, 270° | - | - |
| 1787951431 | 28.89° C | 88% | 999.6 hPa | - | 1.79 m/s, 315° | - | - |
| 1787950533 | 28.89° C | 87% | 999.4 hPa | - | 1.79 m/s, 270° | - | - |
| 1787949633 | 28.89° C | 88% | 999.5 hPa | - | 1.79 m/s, 270° | - | - |
| 1787948731 | 28.89° C | 88% | 999.8 hPa | - | 3.58 m/s, 270° | - | - |
| 1787946933 | 28.89° C | 86% | 999.8 hPa | - | 1.79 m/s, 270° | - | - |
| 1787946032 | 28.33° C | 86% | 999.8 hPa | - | 1.34 m/s, 270° | - | - |
| 1787945133 | 28.33° C | 84% | 1000 hPa | - | 3.13 m/s, 270° | - | - |
| 1787944233 | 28.33° C | 86% | 1000.1 hPa | - | 3.58 m/s, 270° | - | - |
| 1787943331 | 28.89° C | 87% | 1000.2 hPa | - | 3.13 m/s, 270° | - | - |
| 1787942434 | 28.89° C | 89% | 1000.3 hPa | - | 2.68 m/s, 270° | - | - |
| 1787941533 | 27.78° C | 92% | 1000.5 hPa | - | 3.13 m/s, 270° | - | - |
| 1787940631 | 28.33° C | 92% | 1000.7 hPa | - | 3.13 m/s, 270° | - | - |
| 1787939732 | 28.89° C | 93% | 1000.8 hPa | - | 3.13 m/s, 315° | - | - |
| 1787938834 | 28.89° C | 93% | 1001.1 hPa | - | 3.13 m/s, 270° | - | - |
| 1787937932 | 29.44° C | 88% | 1001.2 hPa | - | 4.02 m/s, 270° | - | - |
| 1787936133 | 29.44° C | 86% | 1001.2 hPa | - | 4.47 m/s, 270° | - | - |
| 1787935231 | 29.44° C | 85% | 1001.5 hPa | - | 4.02 m/s, 270° | - | - |
| 1787934332 | 29.44° C | 84% | 1001.6 hPa | - | 4.02 m/s, 270° | - | - |
| 1787933434 | 29.44° C | 84% | 1001.7 hPa | - | 4.02 m/s, 270° | - | - |
| 1787932532 | 29.44° C | 85% | 1001.8 hPa | - | 4.92 m/s, 270° | - | - |
| 1787931633 | 29.44° C | 85% | 1001.7 hPa | - | 4.92 m/s, 270° | - | - |
| 1787929831 | 29.44° C | 85% | 1002.1 hPa | - | 4.47 m/s, 270° | - | - |
* Rain since midnight (hover to see other rain measurements)
** Current wind speed in m/s (hover to see current wind gust speed)